Location: Waldport
(44.4270°N, 124.0680°W)
Time: 23:47:26
(UTC-08:00)

Daily predictions for brighter satellites

Satellite Brightness Start Highest point End
(mag) Time Altitude Azimuth Time Altitude Azimuth Time Altitude Azimuth
Ariane Rocket 3.2 17:08:10 10° SE 17:13:06 52° ENE 17:18:02 10° N
IDEFIX/ARIANE 42P 3.6 17:11:36 10° S 17:16:43 52° W 17:21:49 10° NNW
Cosmos 1459 Rocket 4.4 17:11:41 10° SSW 17:18:02 73° W 17:24:22 10° N
CORIOLIS 4.4 17:13:43 10° SE 17:18:53 47° ENE 17:24:06 10° N
Cosmos 2208 Rocket 4.2 17:14:31 10° NNW 17:19:45 81° WSW 17:25:00 10° SSE
Cosmos 841 Rocket 4.3 17:15:46 10° N 17:20:26 31° ENE 17:25:04 10° ESE
IRAS Rocket 4.3 17:15:02 10° SSE 17:20:36 87° ENE 17:26:10 10° NNW
BREEZE-M R/B 2.5 17:18:14 10° NW 17:20:38 44° NNE 17:24:00 10° E
USA 161 2.4 17:20:20 10° N 17:22:02 31° WNW 17:23:51 10° SW
AQUARIUS 4.3 17:19:45 10° SSE 17:24:07 54° ENE 17:28:31 10° N
Cosmos 1908 Rocket 4.5 17:22:13 10° NNE 17:25:54 26° ENE 17:29:33 10° SE
Cosmos 1741 Rocket 4.4 17:21:57 10° SSW 17:27:14 69° WNW 17:32:35 10° NNE
Cosmos 1733 Rocket 3.1 17:24:51 10° N 17:29:16 65° E 17:33:41 10° SSE
Cosmos 2242 Rocket 3.6 17:24:48 10° S 17:29:18 66° E 17:33:49 10° NNE
Cosmos 972 Rocket 3.8 17:24:52 10° NNW 17:29:50 70° ENE 17:34:43 10° SSE
USA 234 4.2 17:24:34 10° ENE 17:30:16 31° SE 17:35:55 10° S
Sich 1 Rocket 4.5 17:29:57 10° NNE 17:33:42 27° ENE 17:37:28 10° SE
Cosmos 2233 Rocket 4.2 17:28:11 10° SSE 17:34:10 49° E 17:40:08 10° NNE
Lacrosse 5 3.1 17:32:47 10° W 17:37:24 34° NNW 17:42:01 10° NE
SPOT 3 Rocket 4.3 17:33:20 10° ESE 17:37:47 29° ENE 17:42:14 10° N
Cosmos 1346 4.1 17:38:18 10° SW 17:40:25 33° WNW 17:42:32 10° N
Cosmos 1862 Rocket 3.6 17:36:17 10° S 17:40:40 66° E 17:45:05 10° NNE
Cosmos 2082 Rocket 3.1 17:36:53 10° N 17:41:44 27° NE 17:46:31 10° ESE
CZ-4C R/B 3.8 17:37:10 10° NNW 17:42:40 25° NNE 17:47:31 14° ENE
GENESIS II 4.1 17:38:56 10° NNW 17:42:53 76° NE 17:46:47 10° SE
Cosmos 1340 3.0 17:41:56 10° SSW 17:45:41 67° WNW 17:49:27 10° N
CSL-04 Rocket 4.0 17:42:04 10° S 17:47:20 71° WSW 17:52:42 10° NNW
Cosmos 972 4.5 17:43:28 10° N 17:48:29 53° ENE 17:53:15 10° SE
Cosmos 1437 2.6 17:47:17 10° S 17:50:27 85° E 17:53:39 10° NNE
ERBS 2.5 17:52:35 10° NW 17:55:59 75° SW 17:59:23 10° SE
CZ-3A R/B 4.2 17:34:51 10° WNW 17:56:09 78° NNE 18:02:22 10° ESE
ERS-2 2.1 17:56:29 10° SSE 18:00:06 56° ENE 18:03:43 10° N
Cosmos 304 Rocket 3.7 17:56:29 10° NNW 18:01:19 82° ENE 18:06:07 10° SSE
METEOR-M 4.1 17:56:24 10° SSE 18:01:39 63° ENE 18:06:56 10° N
Okean 1-7 3.8 17:59:41 10° SSE 18:03:30 30° E 18:06:01 18° NE
CZ-2C R/B 3.6 18:02:38 10° NNE 18:07:08 88° ESE 18:11:40 10° SSW
CZ-4 R/B 4.3 18:05:30 10° SSE 18:09:40 83° ENE 18:13:51 10° N
Cosmos 1782 Rocket 3.8 18:06:08 10° N 18:10:18 43° ENE 18:14:27 10° SSE
Meteor 1-14 Rocket 4.2 18:06:35 10° NNW 18:12:19 86° W 18:17:53 10° S
COSMO-SKYMED 1 2.6 18:10:21 10° NNE 18:14:39 58° E 18:18:55 10° S
CENTAUR R/B 3.1 18:09:04 10° SW 18:15:06 56° NW 18:21:47 11° NNE
Cosmos 1844 Rocket 3.8 18:10:29 10° SW 18:15:49 42° WNW 18:21:10 10° NNE
YAOGAN 1 2.7 18:13:23 10° S 18:17:42 75° WSW 18:22:04 10° NNW
CZ-4 R/B 2.4 18:15:51 10° S 18:19:35 46° W 18:23:18 10° NNW
COSMOS 2455 3.2 18:16:34 10° SW 18:22:33 67° NW 18:28:07 12° NNE
USA 116 4.4 18:18:21 10° N 18:23:00 64° WNW 18:27:04 10° SSW
Cosmos 44 3.8 18:20:05 10° NNW 18:24:21 35° NE 18:24:57 33° ENE
Cosmos 2221 Rocket 3.7 18:22:08 10° SSE 18:26:22 48° E 18:28:14 29° NE
Cosmos 1072 Rocket 4.5 18:20:37 10° S 18:26:41 60° E 18:32:53 10° NNE
Cosmos 1763 Rocket 4.2 18:23:33 10° NNW 18:28:40 56° WSW 18:33:40 10° S
SL-27 R/B 2.2 18:27:00 10° NNW 18:30:21 90° NNW 18:32:48 17° SSE
Nadezhda 4 Rocket 4.4 18:25:55 10° N 18:31:33 37° ENE 18:35:09 20° SE
Meteor 1-11 Rocket 4.1 18:26:17 10° N 18:31:50 40° ENE 18:35:57 17° SE
Cosmos 2034 Rocket 4.2 18:27:06 10° SSE 18:33:06 46° E 18:39:07 10° NNE
BREEZE-M DEB (TANK) 2.7 18:32:35 10° WNW 18:34:10 44° NNW 18:34:10 44° NNW
ALOS 2.1 18:30:14 10° SSE 18:34:53 77° ENE 18:39:34 10° N
FENGYUN 3A 3.5 18:31:45 10° SSE 18:37:09 78° ENE 18:42:35 10° N
Cosmos 1633 2.6 18:35:14 10° N 18:38:54 78° W 18:42:33 10° S
Cosmos 1703 Rocket 3.7 18:35:28 10° SSW 18:39:56 77° W 18:44:25 10° N
Cosmos 2297 3.8 18:35:28 10° S 18:40:59 53° ESE 18:42:46 38° ENE
Cosmos 1833 Rocket 2.5 18:36:31 10° NNW 18:42:10 73° ENE 18:46:55 15° SSE
Cosmos 1503 Rocket 3.9 18:40:37 10° S 18:45:50 67° ESE 18:47:37 40° NE
Okean 2 Rocket 3.0 18:42:16 10° N 18:46:49 70° E 18:51:19 10° SSE
Cosmos 2278 Rocket 2.6 18:42:17 10° SW 18:47:53 61° WNW 18:52:24 16° NNE
Cosmos 1606 3.3 18:50:03 10° SSW 18:53:46 55° W 18:55:27 29° NNW
EO 1 Del DPAF 4.1 18:52:11 19° N 18:54:37 48° WNW 18:58:17 10° SSW
DMSP B5D1-3 4.4 18:52:02 18° NNE 18:55:56 88° ESE 19:01:06 10° SSW
Cosmos 540 Rocket 3.6 18:55:33 10° NNW 19:00:44 75° WSW 19:05:52 10° SSE
Meteor 2-20 4.3 18:56:00 10° N 19:02:08 76° E 19:08:10 10° SSE
Cosmos 1464 Rocket 4.0 18:56:24 10° S 19:02:32 81° W 19:08:43 10° N
Cosmos 1782 3.8 18:58:54 10° SSW 19:02:47 47° WNW 19:04:58 23° NNW
USA 234 3.2 19:11:31 46° NE 19:13:41 81° NW 19:20:13 10° WSW
Meteor 2-6 Rocket 4.4 19:09:57 10° SSW 19:15:20 66° WNW 19:20:07 14° N
MOS 1-B Rocket 4.5 19:09:11 10° SSE 19:16:21 77° ENE 19:24:46 10° NNW
Lacrosse 5 3.7 19:18:00 10° NW 19:21:28 20° N 19:21:28 20° N
Cosmos 1354 Rocket 4.4 19:18:04 10° SSW 19:23:18 61° WNW 19:24:27 49° NNW
Cosmos 2082 Rocket 2.9 19:20:36 10° NW 19:26:07 53° WSW 19:29:59 19° S
Cosmos 44 Rocket 4.0 19:24:23 10° NW 19:27:55 48° NW 19:27:55 48° NW
FengYun 1-2 T 4.5 19:28:11 22° S 19:31:46 66° WSW 19:37:19 10° NNW
CZ-4C R/B 2.7 19:25:16 10° NW 19:32:22 74° NE 19:32:45 73° ENE
Meteor 1-27 Rocket 4.1 19:33:48 10° SSW 19:39:40 67° WNW 19:40:44 56° NNW
CENTAUR R/B 4.5 20:02:33 10° WNW 20:07:30 21° NNW 20:08:59 20° N
